�������l�o���
Date,Time,MP-1(��Sv/h),MP-2(��Sv/h),MP-3(��Sv/h),MP-4(��Sv/h),MP-5(��Sv/h),MP-6(��Sv/h),MP-7(��Sv/h),MP-8(��Sv/h),����,����(m/s),���J
2020/10/05,00:00,0.681,0.972,0.616,1.180,0.854,0.388,0.678,0.637,��쐼,6.7,��
2020/10/05,00:10,0.680,0.968,0.617,1.179,0.852,0.391,0.678,0.637,��,6.4,��
2020/10/05,00:20,0.678,0.968,0.617,1.181,0.852,0.388,0.677,0.639,��,5.6,��
2020/10/05,00:30,0.678,0.970,0.616,1.180,0.851,0.389,0.678,0.638,��쓌,5.6,��
2020/10/05,00:40,0.679,0.969,0.616,1.179,0.851,0.390,0.678,0.637,��,5.1,��
2020/10/05,00:50,0.679,0.968,0.617,1.180,0.852,0.389,0.678,0.638,��쓌,4.3,��
2020/10/05,01:00,0.678,0.968,0.617,1.179,0.852,0.388,0.677,0.637,��,5.2,��
2020/10/05,01:10,0.680,0.967,0.617,1.178,0.849,0.389,0.679,0.637,��,5.3,��
2020/10/05,01:20,0.680,0.969,0.618,1.180,0.848,0.390,0.677,0.636,��,4.9,��
2020/10/05,01:30,0.678,0.966,0.618,1.181,0.851,0.389,0.678,0.638,��쓌,3.7,��
2020/10/05,01:40,0.679,0.967,0.617,1.181,0.851,0.389,0.679,0.638,��,3.4,��
2020/10/05,01:50,0.677,0.965,0.616,1.181,0.851,0.391,0.678,0.638,��쓌,4.2,��
2020/10/05,02:00,0.679,0.970,0.615,1.181,0.851,0.388,0.678,0.638,��쓌,4.9,�L
2020/10/05,02:10,0.679,0.966,0.617,1.180,0.850,0.388,0.678,0.639,��쓌,4.0,�L
2020/10/05,02:20,0.679,0.969,0.617,1.179,0.852,0.389,0.677,0.637,��쓌,4.1,�L
2020/10/05,02:30,0.678,0.968,0.618,1.181,0.850,0.390,0.679,0.638,�쓌,3.2,�L
2020/10/05,02:40,0.679,0.967,0.617,1.180,0.852,0.389,0.679,0.638,��쓌,3.7,�L
2020/10/05,02:50,0.681,0.968,0.618,1.180,0.852,0.390,0.678,0.638,�쓌,4.2,�L
2020/10/05,03:00,0.680,0.968,0.618,1.180,0.851,0.389,0.678,0.637,��쓌,4.6,�L
2020/10/05,03:10,0.683,0.970,0.618,1.179,0.851,0.391,0.678,0.638,��쓌,5.6,�L
2020/10/05,03:20,0.683,0.972,0.618,1.182,0.852,0.391,0.678,0.637,��쓌,4.1,�L
2020/10/05,03:30,0.686,0.972,0.620,1.184,0.851,0.391,0.678,0.638,��쓌,4.3,�L
2020/10/05,03:40,0.684,0.973,0.620,1.183,0.851,0.391,0.678,0.639,��,4.0,�L
2020/10/05,03:50,0.684,0.974,0.620,1.182,0.854,0.391,0.678,0.637,��,3.6,�L
2020/10/05,04:00,0.684,0.974,0.620,1.182,0.854,0.391,0.678,0.637,��쓌,5.5,�L
2020/10/05,04:10,0.686,0.971,0.619,1.182,0.853,0.389,0.678,0.638,��,4.8,�L
2020/10/05,04:20,0.683,0.971,0.619,1.184,0.853,0.390,0.678,0.638,��쓌,4.2,��
2020/10/05,04:30,0.681,0.971,0.621,1.182,0.853,0.389,0.680,0.637,��쓌,7.3,��
2020/10/05,04:40,0.681,0.971,0.620,1.181,0.854,0.390,0.679,0.638,��,6.7,��
2020/10/05,04:50,0.680,0.971,0.619,1.180,0.852,0.390,0.680,0.638,��,5.8,��
2020/10/05,05:00,0.679,0.971,0.617,1.181,0.853,0.390,0.677,0.637,��쓌,6.1,��
2020/10/05,05:10,0.680,0.969,0.618,1.180,0.852,0.389,0.678,0.637,��,5.5,��
2020/10/05,05:20,0.680,0.970,0.618,1.181,0.853,0.389,0.678,0.639,��쓌,5.2,�L
2020/10/05,05:30,0.680,0.972,0.618,1.180,0.853,0.388,0.679,0.638,��,5.5,�L
2020/10/05,05:40,0.680,0.973,0.620,1.182,0.853,0.390,0.678,0.636,��,5.8,�L
2020/10/05,05:50,0.681,0.972,0.619,1.184,0.855,0.391,0.678,0.638,��,6.7,�L
2020/10/05,06:00,0.682,0.971,0.619,1.180,0.852,0.389,0.676,0.640,��,6.0,�L
2020/10/05,06:10,0.681,0.972,0.618,1.183,0.853,0.391,0.678,0.638,��쐼,3.1,�L
2020/10/05,06:20,0.682,0.972,0.618,1.182,0.853,0.390,0.677,0.638,��쐼,4.0,��
2020/10/05,06:30,0.680,0.970,0.618,1.182,0.852,0.390,0.678,0.639,��쐼,4.5,��
2020/10/05,06:40,0.681,0.969,0.618,1.183,0.852,0.390,0.679,0.638,��쐼,4.8,��
2020/10/05,06:50,0.680,0.971,0.617,1.181,0.853,0.391,0.678,0.639,��쐼,4.9,��
2020/10/05,07:00,0.681,0.970,0.616,1.180,0.854,0.392,0.678,0.638,��쐼,3.7,��
2020/10/05,07:10,0.680,0.969,0.616,1.181,0.855,0.392,0.680,0.637,��,4.5,��
2020/10/05,07:20,0.683,0.970,0.618,1.180,0.854,0.391,0.679,0.640,��쐼,4.9,��
2020/10/05,07:30,0.679,0.969,0.617,1.181,0.853,0.388,0.679,0.639,��,4.5,��
2020/10/05,07:40,0.681,0.967,0.617,1.181,0.852,0.391,0.678,0.637,��,4.4,��
2020/10/05,07:50,0.680,0.965,0.616,1.182,0.853,0.390,0.678,0.639,��쐼,3.9,��
2020/10/05,08:00,0.679,0.966,0.615,1.178,0.853,0.391,0.679,0.637,��,3.7,��
2020/10/05,08:10,0.681,0.966,0.615,1.180,0.852,0.389,0.677,0.637,��,2.8,��
2020/10/05,08:20,0.679,0.965,0.617,1.180,0.852,0.390,0.679,0.636,��,3.7,��
2020/10/05,08:30,0.679,0.963,0.616,1.181,0.853,0.389,0.678,0.637,��,3.7,��
2020/10/05,08:40,0.679,0.964,0.617,1.181,0.852,0.389,0.679,0.635,��,3.9,��
2020/10/05,08:50,0.680,0.965,0.616,1.179,0.852,0.389,0.678,0.637,��,4.3,��
2020/10/05,09:00,0.678,0.964,0.617,1.177,0.851,0.389,0.677,0.636,��,4.6,��
2020/10/05,09:10,0.680,0.963,0.615,1.181,0.853,0.389,0.677,0.636,��,4.6,��
2020/10/05,09:20,0.679,0.961,0.615,1.182,0.852,0.388,0.677,0.636,��,3.9,��
2020/10/05,09:30,0.678,0.963,0.616,1.180,0.852,0.389,0.676,0.636,��쓌,3.3,��
2020/10/05,09:40,0.679,0.960,0.615,1.182,0.853,0.387,0.678,0.636,��,3.0,��
2020/10/05,09:50,0.680,0.960,0.615,1.182,0.851,0.388,0.679,0.636,��쐼,2.3,��
2020/10/05,10:00,0.677,0.959,0.615,1.180,0.850,0.387,0.676,0.636,��,2.0,��
2020/10/05,10:10,0.677,0.964,0.614,1.182,0.851,0.388,0.678,0.636,�쐼,1.5,��
2020/10/05,10:20,0.679,0.962,0.616,1.180,0.853,0.388,0.677,0.637,-,CALM,��
2020/10/05,10:30,0.679,0.965,0.614,1.180,0.851,0.387,0.677,0.636,-,CALM,��
2020/10/05,10:40,0.678,0.964,0.613,1.180,0.852,0.390,0.677,0.637,��,0.6,��
2020/10/05,10:50,0.679,0.963,0.615,1.183,0.850,0.388,0.678,0.637,���k��,1.2,��
2020/10/05,11:00,0.678,0.963,0.615,1.182,0.851,0.388,0.678,0.637,-,CALM,��
2020/10/05,11:10,0.680,0.965,0.614,1.182,0.852,0.390,0.677,0.636,�k�k��,1.5,��
2020/10/05,11:20,0.680,0.962,0.614,1.180,0.852,0.389,0.678,0.636,�k��,2.9,��
2020/10/05,11:30,0.679,0.962,0.612,1.183,0.851,0.389,0.678,0.636,���k��,5.0,��
2020/10/05,11:40,0.680,0.963,0.615,1.180,0.853,0.389,0.678,0.637,���k��,7.8,�L
2020/10/05,11:50,0.680,0.966,0.614,1.182,0.852,0.387,0.678,0.636,���k��,6.6,�L
2020/10/05,12:00,0.679,0.967,0.615,1.181,0.851,0.390,0.678,0.635,���k��,5.8,�L
2020/10/05,12:10,0.681,0.966,0.615,1.183,0.853,0.389,0.678,0.637,�k��,2.6,��
2020/10/05,12:20,0.679,0.969,0.615,1.183,0.853,0.387,0.677,0.638,���k��,4.0,�L
2020/10/05,12:30,0.680,0.969,0.617,1.181,0.852,0.388,0.679,0.637,���k��,5.6,��
2020/10/05,12:40,0.680,0.967,0.617,1.183,0.852,0.389,0.679,0.635,���k��,3.7,��
2020/10/05,12:50,0.682,0.970,0.616,1.183,0.853,0.388,0.678,0.636,�k,1.7,��
2020/10/05,13:00,0.682,0.965,0.615,1.182,0.854,0.388,0.677,0.638,�k�k��,1.5,��
2020/10/05,13:10,0.682,0.966,0.616,1.183,0.854,0.387,0.679,0.637,�k��,2.3,��
2020/10/05,13:20,0.681,0.965,0.615,1.181,0.852,0.390,0.677,0.638,�k��,2.2,��
2020/10/05,13:30,0.679,0.964,0.615,1.182,0.852,0.388,0.678,0.637,���k��,1.9,��
2020/10/05,13:40,0.680,0.966,0.618,1.185,0.853,0.388,0.679,0.636,���쐼,1.4,��
2020/10/05,13:50,0.676,0.963,0.613,1.183,0.851,0.388,0.678,0.638,�쐼,1.4,��
2020/10/05,14:00,0.681,0.966,0.614,1.184,0.852,0.387,0.678,0.636,�k�k��,1.2,��
2020/10/05,14:10,0.678,0.964,0.617,1.182,0.853,0.390,0.679,0.637,�k,3.0,��
2020/10/05,14:20,0.678,0.963,0.614,1.183,0.852,0.387,0.677,0.635,�k,5.0,��
2020/10/05,14:30,0.677,0.963,0.613,1.182,0.852,0.388,0.676,0.636,�k,4.5,��
2020/10/05,14:40,0.676,0.965,0.615,1.182,0.851,0.388,0.677,0.637,�k�k��,5.2,��
2020/10/05,14:50,0.677,0.964,0.613,1.184,0.851,0.387,0.677,0.637,�k�k��,6.0,��
2020/10/05,15:00,0.678,0.964,0.607,1.183,0.850,0.388,0.678,0.636,�k�k��,5.2,��
2020/10/05,15:10,0.679,0.965,0.610,1.182,0.852,0.389,0.679,0.635,�k�k��,5.3,��
2020/10/05,15:20,0.677,0.965,0.609,1.183,0.853,0.388,0.677,0.635,�k�k��,4.7,��
2020/10/05,15:30,0.678,0.965,0.609,1.182,0.852,0.388,0.678,0.636,�k�k��,5.8,��
2020/10/05,15:40,0.676,0.967,0.610,1.181,0.851,0.389,0.678,0.636,�k,5.5,��
2020/10/05,15:50,0.677,0.967,0.608,1.184,0.852,0.386,0.678,0.637,�k,4.8,��
2020/10/05,16:00,0.676,0.968,0.610,1.183,0.852,0.389,0.678,0.637,�k,4.8,��
2020/10/05,16:10,0.676,0.969,0.611,1.185,0.851,0.390,0.678,0.637,�k,3.6,��
2020/10/05,16:20,0.678,0.967,0.610,1.185,0.852,0.389,0.675,0.635,�k�k��,3.7,��
2020/10/05,16:30,0.680,0.966,0.613,1.186,0.853,0.389,0.677,0.638,�k,2.2,��
2020/10/05,16:40,0.678,0.966,0.611,1.185,0.852,0.389,0.677,0.637,���k��,4.8,��
2020/10/05,16:50,0.677,0.967,0.611,1.185,0.850,0.390,0.678,0.639,���k��,4.6,��
2020/10/05,17:00,0.675,0.969,0.609,1.186,0.849,0.391,0.678,0.640,���k��,3.8,��
2020/10/05,17:10,0.677,0.970,0.609,1.183,0.850,0.389,0.678,0.638,�k��,3.1,��
2020/10/05,17:20,0.679,0.970,0.610,1.183,0.851,0.390,0.677,0.638,�k��,3.9,��
2020/10/05,17:30,0.675,0.970,0.611,1.183,0.851,0.390,0.677,0.640,�k��,4.6,��
2020/10/05,17:40,0.678,0.969,0.611,1.182,0.852,0.388,0.676,0.639,�k�k��,3.9,��
2020/10/05,17:50,0.679,0.973,0.610,1.182,0.853,0.390,0.677,0.639,�k,4.8,��
2020/10/05,18:00,0.678,0.970,0.612,1.185,0.852,0.389,0.679,0.639,�k,4.3,��
2020/10/05,18:10,0.678,0.970,0.612,1.184,0.855,0.390,0.679,0.638,�k,4.1,��
2020/10/05,18:20,0.678,0.968,0.614,1.184,0.854,0.388,0.677,0.638,�k�k��,4.2,��
2020/10/05,18:30,0.679,0.968,0.613,1.184,0.853,0.392,0.678,0.638,�k�k��,4.0,��
2020/10/05,18:40,0.679,0.970,0.613,1.185,0.855,0.390,0.678,0.637,�k,4.7,��
2020/10/05,18:50,0.680,0.972,0.613,1.185,0.857,0.390,0.678,0.638,�k,3.8,��
2020/10/05,19:00,0.677,0.972,0.613,1.185,0.855,0.390,0.680,0.639,�k,4.5,��
2020/10/05,19:10,0.680,0.972,0.613,1.184,0.853,0.388,0.678,0.637,�k,3.8,��
2020/10/05,19:20,0.678,0.970,0.613,1.183,0.854,0.390,0.677,0.638,�k,4.3,��
2020/10/05,19:30,0.679,0.971,0.611,1.184,0.854,0.389,0.678,0.637,�k,3.7,��
2020/10/05,19:40,0.677,0.971,0.614,1.187,0.855,0.389,0.675,0.639,�k,3.4,��
2020/10/05,19:50,0.676,0.971,0.615,1.184,0.853,0.389,0.678,0.638,�k�k��,2.6,��
2020/10/05,20:00,0.679,0.973,0.613,1.185,0.852,0.388,0.678,0.639,�k��,3.5,��
2020/10/05,20:10,0.679,0.970,0.613,1.185,0.854,0.389,0.679,0.637,���k��,4.0,��
2020/10/05,20:20,0.680,0.973,0.610,1.187,0.854,0.388,0.678,0.638,���k��,3.2,��
2020/10/05,20:30,0.679,0.971,0.612,1.186,0.852,0.388,0.678,0.638,�k��,2.0,��
2020/10/05,20:40,0.679,0.973,0.612,1.185,0.852,0.388,0.676,0.638,�k��,2.3,��
2020/10/05,20:50,0.680,0.972,0.613,1.182,0.854,0.389,0.675,0.637,�k��,3.8,��
2020/10/05,21:00,0.677,0.970,0.612,1.184,0.854,0.389,0.676,0.639,�k��,3.3,��
2020/10/05,21:10,0.677,0.971,0.612,1.186,0.852,0.387,0.677,0.639,�k��,3.2,��
2020/10/05,21:20,0.679,0.969,0.613,1.187,0.854,0.387,0.676,0.639,�k��,3.8,��
2020/10/05,21:30,0.679,0.971,0.613,1.184,0.856,0.388,0.678,0.637,�k�k��,5.3,��
2020/10/05,21:40,0.679,0.972,0.612,1.187,0.854,0.388,0.678,0.639,�k�k��,5.3,��
2020/10/05,21:50,0.677,0.972,0.614,1.184,0.854,0.387,0.676,0.639,�k��,6.1,��
2020/10/05,22:00,0.680,0.970,0.612,1.183,0.854,0.388,0.676,0.638,�k��,6.6,��
2020/10/05,22:10,0.679,0.973,0.614,1.185,0.853,0.389,0.677,0.638,�k��,6.6,��
2020/10/05,22:20,0.678,0.973,0.612,1.186,0.854,0.387,0.678,0.637,�k��,4.7,��
2020/10/05,22:30,0.681,0.972,0.613,1.186,0.854,0.389,0.677,0.637,�k��,4.6,��
2020/10/05,22:40,0.680,0.972,0.614,1.185,0.854,0.387,0.679,0.638,�k��,5.5,��
2020/10/05,22:50,0.678,0.972,0.613,1.188,0.854,0.387,0.676,0.636,�k��,5.0,��
2020/10/05,23:00,0.680,0.971,0.615,1.186,0.852,0.388,0.677,0.637,�k��,5.0,��
2020/10/05,23:10,0.678,0.970,0.613,1.185,0.855,0.389,0.676,0.638,�k��,3.9,��
2020/10/05,23:20,0.679,0.974,0.613,1.183,0.853,0.388,0.676,0.638,�k�k��,5.4,��
2020/10/05,23:30,0.679,0.971,0.613,1.187,0.853,0.387,0.676,0.638,�k��,4.8,��
2020/10/05,23:40,0.677,0.971,0.612,1.186,0.854,0.386,0.677,0.638,�k��,4.1,��
2020/10/05,23:50,0.679,0.971,0.613,1.188,0.851,0.388,0.675,0.639,�k��,5.7,��
